Creston, IA

2:58 PM CST on January 20, 2017 (GMT -0600)
Creston Municipal

Weather History for KCSQ - November, 2012

Change the Weather History Date:

Friday, November 23, 2012

  Actual Average Record
Temperature  
Mean Temperature 26 °F -  
Max Temperature 37 °F 42 °F 64 °F (1966)
Min Temperature 15 °F 26 °F 4 °F (1970)
Degree Days  
Heating Degree Days 39    
Moisture  
Dew Point 13 °F    
Average Humidity 59    
Maximum Humidity 81    
Minimum Humidity 44    
Precipitation  
Precipitation 0.00 in - - ()
Sea Level Pressure  
Sea Level Pressure 30.35 in    
Wind  
Wind Speed 15 mph (NW)    
Max Wind Speed 25 mph    
Max Gust Speed 37 mph    
Visibility 10 miles    
Events      
Averages and records for this station are not official NWS values.
T = Trace of Precipitation, MM = Missing Value Source: NWS Daily Summary

Daily Weather History Graph

Daily Weather History Graph

Search for Another Location

Airport or City:

Trip Planner

Search our weather history database for the weather conditions in past years. The results will help you decide how hot, cold, wet, or windy it might be!

Date:

Astronomy

Nov. 23, 2012 Rise Set
Actual Time 7:14 AM CST 4:52 PM CST
Civil Twilight 6:44 AM CST 5:22 PM CST
Nautical Twilight 6:11 AM CST 5:56 PM CST
Astronomical Twilight 5:38 AM CST 6:29 PM CST
Moon 2:09 PM CST (11/23) 2:32 AM CST (11/23)
Length of Visible Light 10h 38m
Length of Day
9h 37m
Waxing Gibbous, 80% of the Moon is Illuminated
Nov 23
Waxing Gibbous
Nov 28
Full
Dec 6
Last Quarter
Dec 13
New
Dec 19
First Quarter

Hourly Weather History & Observations

Time (CST) Temp. Windchill Dew Point Humidity Pressure Visibility Wind Dir Wind Speed Gust Speed Precip Events Conditions
12:15 AM 33.8 °F 27.7 °F 28.4 °F 81% 30.18 in 10.0 mi WNW 6.9 mph - N/A   Clear
12:55 AM 37.4 °F 28.5 °F 28.4 °F 70% 30.18 in 10.0 mi NW 15.0 mph 20.7 mph N/A   Overcast
1:15 AM 37.4 °F 28.2 °F 26.6 °F 65% 30.19 in 10.0 mi WNW 16.1 mph 23.0 mph N/A   Overcast
1:35 AM 35.6 °F 26.2 °F 24.8 °F 65% 30.19 in 10.0 mi NW 15.0 mph 27.6 mph N/A   Overcast
1:55 AM 35.6 °F 25.2 °F 23.0 °F 60% 30.20 in 10.0 mi NW 18.4 mph 21.9 mph N/A   Overcast
2:15 AM 35.6 °F 26.2 °F 23.0 °F 60% 30.21 in 10.0 mi NW 15.0 mph - N/A   Overcast
2:35 AM 35.6 °F 26.6 °F 21.2 °F 56% 30.22 in 10.0 mi NW 13.8 mph 21.9 mph N/A   Overcast
2:55 AM 35.6 °F 24.5 °F 21.2 °F 56% 30.23 in 10.0 mi NW 20.7 mph 29.9 mph N/A   Overcast
3:15 AM 33.8 °F 21.0 °F 19.4 °F 56% 30.24 in 10.0 mi NNW 25.3 mph 33.4 mph N/A   Overcast
3:35 AM 32.0 °F 19.8 °F 19.4 °F 60% 30.25 in 10.0 mi NW 20.7 mph 28.8 mph N/A   Overcast
3:55 AM 30.2 °F 17.4 °F 15.8 °F 55% 30.26 in 10.0 mi NW 20.7 mph 33.4 mph N/A   Overcast
4:15 AM 30.2 °F 16.8 °F 15.8 °F 55% 30.27 in 10.0 mi NW 23.0 mph 31.1 mph N/A   Overcast
4:35 AM 28.4 °F 15.4 °F 14.0 °F 55% 30.28 in 10.0 mi NW 19.6 mph 35.7 mph N/A   Overcast
4:55 AM 26.6 °F 12.0 °F 14.0 °F 59% 30.29 in 10.0 mi NW 23.0 mph 29.9 mph N/A   Scattered Clouds
5:15 AM 26.6 °F 13.1 °F 15.8 °F 64% 30.30 in 10.0 mi NW 19.6 mph 27.6 mph N/A   Scattered Clouds
5:35 AM 26.6 °F 15.2 °F 15.8 °F 64% 30.31 in 10.0 mi NW 13.8 mph 27.6 mph N/A   Overcast
5:55 AM 26.6 °F 13.4 °F 15.8 °F 64% 30.31 in 10.0 mi NW 18.4 mph 28.8 mph N/A   Mostly Cloudy
6:15 AM 24.8 °F 10.3 °F 15.8 °F 69% 30.32 in 10.0 mi NW 20.7 mph 24.2 mph N/A   Scattered Clouds
6:35 AM 24.8 °F 10.0 °F 14.0 °F 64% 30.33 in 10.0 mi NW 21.9 mph 28.8 mph N/A   Scattered Clouds
6:55 AM 24.8 °F 12.4 °F 14.0 °F 64% 30.34 in 10.0 mi WNW 15.0 mph 21.9 mph N/A   Clear
7:15 AM 24.8 °F 12.4 °F 14.0 °F 64% 30.34 in 10.0 mi WNW 15.0 mph 27.6 mph N/A   Clear
7:35 AM 24.8 °F 10.7 °F 12.2 °F 59% 30.35 in 10.0 mi WNW 19.6 mph 31.1 mph N/A   Clear
7:55 AM 24.8 °F 11.5 °F 12.2 °F 59% 30.35 in 10.0 mi WNW 17.3 mph 23.0 mph N/A   Clear
8:15 AM 24.8 °F 11.1 °F 12.2 °F 59% 30.36 in 10.0 mi WNW 18.4 mph 26.5 mph N/A   Clear
8:35 AM 24.8 °F 11.1 °F 14.0 °F 64% 30.37 in 10.0 mi WNW 18.4 mph 25.3 mph N/A   Clear
8:55 AM 24.8 °F 9.3 °F 12.2 °F 59% 30.38 in 10.0 mi WNW 24.2 mph 36.8 mph N/A   Clear
9:15 AM 24.8 °F 10.3 °F 12.2 °F 59% 30.39 in 10.0 mi WNW 20.7 mph 31.1 mph N/A   Clear
9:35 AM 26.6 °F 12.0 °F 12.2 °F 55% 30.40 in 10.0 mi WNW 23.0 mph 31.1 mph N/A   Clear
9:55 AM 26.6 °F 12.0 °F 12.2 °F 55% 30.40 in 10.0 mi NW 23.0 mph 34.5 mph N/A   Clear
10:15 AM 26.6 °F 11.4 °F 12.2 °F 55% 30.40 in 10.0 mi NW 25.3 mph 31.1 mph N/A   Clear
10:35 AM 26.6 °F 12.4 °F 12.2 °F 55% 30.42 in 10.0 mi NW 21.9 mph 27.6 mph N/A   Scattered Clouds
10:55 AM 28.4 °F 14.1 °F 12.2 °F 51% 30.41 in 10.0 mi NW 24.2 mph 28.8 mph N/A   Scattered Clouds
11:15 AM 28.4 °F 16.2 °F 12.2 °F 51% 30.41 in 10.0 mi NW 17.3 mph 26.5 mph N/A   Clear
11:35 AM 28.4 °F 15.1 °F 12.2 °F 51% 30.41 in 10.0 mi NW 20.7 mph 29.9 mph N/A   Clear
11:55 AM 30.2 °F 17.8 °F 12.2 °F 47% 30.40 in 10.0 mi NW 19.6 mph 26.5 mph N/A   Clear
12:15 PM 30.2 °F 16.8 °F 12.2 °F 47% 30.40 in 10.0 mi WNW 23.0 mph 27.6 mph N/A   Clear
12:35 PM 30.2 °F 18.1 °F 12.2 °F 47% 30.40 in 10.0 mi NW 18.4 mph 29.9 mph N/A   Clear
12:55 PM 30.2 °F 17.8 °F 12.2 °F 47% 30.40 in 10.0 mi NW 19.6 mph 29.9 mph N/A   Clear
1:15 PM 30.2 °F 16.5 °F 12.2 °F 47% 30.39 in 10.0 mi WNW 24.2 mph 31.1 mph N/A   Clear
1:35 PM 30.2 °F 17.8 °F 12.2 °F 47% 30.39 in 10.0 mi NW 19.6 mph 31.1 mph N/A   Clear
1:55 PM 30.2 °F 17.4 °F 12.2 °F 47% 30.40 in 10.0 mi NW 20.7 mph 29.9 mph N/A   Clear
2:15 PM 30.2 °F 17.1 °F 12.2 °F 47% 30.39 in 10.0 mi NW 21.9 mph 32.2 mph N/A   Clear
2:35 PM 30.2 °F 17.1 °F 12.2 °F 47% 30.39 in 10.0 mi WNW 21.9 mph 31.1 mph N/A   Clear
2:55 PM 30.2 °F 18.9 °F 12.2 °F 47% 30.40 in 10.0 mi NW 16.1 mph 26.5 mph N/A   Clear
3:15 PM 30.2 °F 17.4 °F 12.2 °F 47% 30.39 in 10.0 mi WNW 20.7 mph 28.8 mph N/A   Clear
3:35 PM 30.2 °F 18.1 °F 10.4 °F 44% 30.40 in 10.0 mi WNW 18.4 mph 25.3 mph N/A   Clear
3:55 PM 30.2 °F 18.5 °F 10.4 °F 44% 30.40 in 10.0 mi WNW 17.3 mph 25.3 mph N/A   Clear
4:15 PM 28.4 °F 18.0 °F 10.4 °F 47% 30.41 in 10.0 mi NW 12.7 mph 20.7 mph N/A   Clear
4:35 PM 28.4 °F 17.5 °F 10.4 °F 47% 30.41 in 10.0 mi NW 13.8 mph 21.9 mph N/A   Clear
4:55 PM 26.6 °F 16.2 °F 10.4 °F 51% 30.41 in 10.0 mi NW 11.5 mph - N/A   Clear
5:15 PM 26.6 °F 17.5 °F 12.2 °F 55% 30.41 in 10.0 mi WNW 9.2 mph - N/A   Clear
5:35 PM 24.8 °F 15.3 °F 10.4 °F 54% 30.41 in 10.0 mi NW 9.2 mph - N/A   Clear
5:55 PM 24.8 °F 16.9 °F 10.4 °F 54% 30.41 in 10.0 mi WNW 6.9 mph - N/A   Clear
6:15 PM 23.0 °F 14.7 °F 10.4 °F 59% 30.40 in 10.0 mi WNW 6.9 mph - N/A   Clear
6:35 PM 21.2 °F 13.6 °F 10.4 °F 63% 30.40 in 10.0 mi WNW 5.8 mph - N/A   Clear
6:55 PM 21.2 °F 13.6 °F 10.4 °F 63% 30.41 in 10.0 mi WNW 5.8 mph - N/A   Clear
7:15 PM 21.2 °F 12.6 °F 10.4 °F 63% 30.41 in 10.0 mi WNW 6.9 mph - N/A   Clear
7:35 PM 19.4 °F 11.5 °F 10.4 °F 68% 30.41 in 10.0 mi WNW 5.8 mph - N/A   Clear
7:55 PM 19.4 °F 10.4 °F 10.4 °F 68% 30.40 in 10.0 mi NW 6.9 mph - N/A   Clear
8:15 PM 19.4 °F 12.8 °F 10.4 °F 68% 30.40 in 10.0 mi West 4.6 mph - N/A   Clear
8:35 PM 19.4 °F 14.3 °F 10.4 °F 68% 30.39 in 10.0 mi WNW 3.5 mph - N/A   Clear
8:55 PM 17.6 °F 9.3 °F 8.6 °F 68% 30.39 in 10.0 mi WNW 5.8 mph - N/A   Clear
9:15 PM 17.6 °F 10.7 °F 8.6 °F 68% 30.40 in 10.0 mi WNW 4.6 mph - N/A   Clear
9:35 PM 17.6 °F 9.3 °F 8.6 °F 68% 30.40 in 10.0 mi WNW 5.8 mph - N/A   Clear
9:55 PM 17.6 °F 10.7 °F 8.6 °F 68% 30.39 in 10.0 mi NW 4.6 mph - N/A   Clear
10:15 PM 17.6 °F 10.7 °F 8.6 °F 68% 30.38 in 10.0 mi NW 4.6 mph - N/A   Clear
10:35 PM 17.6 °F 10.7 °F 8.6 °F 68% 30.38 in 10.0 mi NW 4.6 mph - N/A   Clear
10:55 PM 15.8 °F 7.2 °F 8.6 °F 73% 30.38 in 10.0 mi WNW 5.8 mph - N/A   Clear
11:15 PM 15.8 °F 10.2 °F 8.6 °F 73% 30.38 in 10.0 mi NW 3.5 mph - N/A   Clear
11:35 PM 17.6 °F 10.7 °F 8.6 °F 68% 30.37 in 10.0 mi NW 4.6 mph - N/A   Clear
11:55 PM 15.8 °F 6.1 °F 8.6 °F 73% 30.37 in 10.0 mi WNW 6.9 mph - N/A   Clear